This is the latest recevied weather packets stored in our database for station/object KG4LKY-5. If no packets are shown the sender has not sent any weather packets the latest 10 day(s).
| Time | Temp. | Humidity | Pressure | Rain* | Wind** | Luminosity | Snow |
|---|---|---|---|---|---|---|---|
| 1777853373 | 14.44° C | 35% | 1015.7 hPa | 0 mm | - | - | - |
| 1777852773 | 15.56° C | 31% | 1015.9 hPa | 0 mm | - | - | - |
| 1777852473 | 16.67° C | 29% | 1015.9 hPa | 0 mm | - | - | - |
| 1777851271 | 16.67° C | 22% | 1016 hPa | 0 mm | - | - | - |
| 1777850971 | 17.22° C | 21% | 1016.1 hPa | 0 mm | - | - | - |
| 1777850671 | 17.22° C | 21% | 1016.1 hPa | 0 mm | - | - | - |
| 1777850370 | 17.78° C | 21% | 1016 hPa | 0 mm | - | - | - |
| 1777850070 | 17.22° C | 23% | 1015.8 hPa | 0 mm | - | - | - |
| 1777849770 | 17.78° C | 23% | 1015.7 hPa | 0 mm | - | - | - |
| 1777849470 | 17.78° C | 23% | 1015.8 hPa | 0 mm | - | - | - |
| 1777849169 | 17.22° C | 22% | 1015.8 hPa | 0 mm | - | - | - |
| 1777848869 | 17.78° C | 21% | 1015.9 hPa | 0 mm | - | - | - |
| 1777848569 | 18.33° C | 20% | 1015.9 hPa | 0 mm | - | - | - |
| 1777848268 | 17.78° C | 19% | 1015.9 hPa | 0 mm | - | - | - |
| 1777847968 | 17.78° C | 22% | 1015.9 hPa | 0 mm | - | - | - |
| 1777847668 | 17.78° C | 20% | 1016 hPa | 0 mm | - | - | - |
| 1777847368 | 17.78° C | 20% | 1016 hPa | 0 mm | - | - | - |
| 1777847067 | 18.33° C | 21% | 1016.1 hPa | 0 mm | - | - | - |
| 1777846467 | 17.78° C | 20% | 1016.3 hPa | 0 mm | - | - | - |
| 1777846167 | 18.33° C | 21% | 1016.4 hPa | 0 mm | - | - | - |
| 1777845866 | 17.78° C | 21% | 1016.5 hPa | 0 mm | - | - | - |
| 1777845566 | 18.33° C | 20% | 1016.6 hPa | 0 mm | - | - | - |
| 1777845266 | 18.33° C | 20% | 1016.7 hPa | 0 mm | - | - | - |
| 1777844965 | 18.33° C | 21% | 1016.7 hPa | 0 mm | - | - | - |
| 1777844665 | 17.78° C | 20% | 1016.9 hPa | 0 mm | - | - | - |
* Rain since midnight (hover to see other rain measurements)
** Current wind speed in m/s (hover to see current wind gust speed)